STARLINK-30329, 57635

Orbit data source: Space-Track

STARLINK-30329, 57635 is a payload satellite owned by SpaceX/Seattle (US) in LEO that was launched on Thu, 17 Aug 2023 UTC via an FALCON 9 launch vehicle from the Air Force Eastern Test Range (AFETR). Payload-class satellites include a variety of spacecraft equipped with specific instruments for various scientific and technological missions. These include communications satellites like Starlink; space stations such as the ISS; scientific satellites like the Hubble; Earth observation satellites from companies like Planet Labs, Umbra, and HawkEye 360; GPS; miniature CubeSats for education and research; and military/defense satellites.

Loading next visibility...
Identifier
57635, 2023-122D
Orbit
LEO
Country
Flag of USUS
Related business
Manufacturer
SpaceX/Seattle
Mission
Operational Commercial Communications
Bus & Motor
STARLINK V2M, Unknown motor
Mass
730 kg wet, ~700 kg dry
Launch date (UTC)
2023-08-17 (2 years ago)
Launch vehicle
FALCON 9
Launch site
Air Force Eastern Test Range (AFETR)
Object type
Payload
Rocket body
Debris
Shape & HBR
Box + 2 Pan, 14.5 m
Radar Cross Section
33.884 m², Large (>1 m²)

Expand to show TLE details & history
Last TLE update: 20 hours ago

TLE from 20 hours ago
0 STARLINK-30329
1 57635U 23122D   25242.93445193  .00003666  00000-0  28611-3 0  9991
2 57635  43.0033  51.4559 0001165 262.2276  97.8434 15.02566019113487
Epoch: 2025-08-30T22:25Z
TLE epoch observation values (Epoch: 2025-08-30T22:25:36.646Z)
Latitude
-0.00004°
Longitude
95.69154°
Altitude
558.876 km
Speed
7.584 km/s
True Right ascension
03h 25m 49s
True Declination
0° 00' 00"
Sunlit
Object was in daylight at epoch
Visualization orbit readout
Latitude
Unknown
Longitude
Unknown
Altitude
Unknown
Speed
Unknown
Apparent Right ascension
Unknown
Apparent Declination
Unknown
Sunlit
N/A
Visualization observer readout
Local Sidereal Time
10:23:08
Azimuth
Unknown
Elevation
Unknown
Doppler factor
Unknown
Orbital elements
Apogee altitude
561.719 km
Perigee altitude
560.102 km
Semi-major axis
6,939.048 km
Eccentricity
0.00012
Inclination
43.0033°
RAAN
51.4559°
Arg. of periapsis
262.2276°
True anomaly
97.85662°
Mean anomaly
97.8434°
Eccentric anomaly
97.85001°
Mean motion
3.75486 °/min
Orbital period
95.88 mins
BSTAR
0.00028611
Loading maneuver chart data...
Computing Atmospheric mass density...
Loading historical data...
Loading historical data...
Loading historical data...
Loading historical data...
Loading historical data...
Loading historical data...
Loading historical data...

Documentation

Showing up to 5 results
|